Regional Weather Roundup
Issued by NWS Newport/Morehead, NC

Current Version | Previous Version | Graphics & Text | Print | Product List | Glossary Off
Versions: 1 2 3 4 5 6 7 8 9 10 11 12 13 14 15 16 17 18 19 20 21 22 23 24 25 26 27 28 29 30 31 32 33 34 35 36 37 38 39 40 41 42 43 44 45 46 47 48 49 50
000 ASUS42 KMHX 291513 RWRMHX WEATHER ROUNDUP FOR EASTERN NORTH CAROLINA NATIONAL WEATHER SERVICE NEWPORT/MOREHEAD CITY NC 1100 AM EDT SAT AUG 29 2015 NOTE: "FAIR" INDICATES FEW OR NO CLOUDS BELOW 12,000 FEET WITH NO SIGNIFICANT WEATHER AND/OR OBSTRUCTIONS TO VISIBILITY NCZ015>017-031-032-045>047-102-103-291600- NORTH COAST CITY SKY/WX TMP DP RH WIND PRES REMARKS EDENTON SUNNY 79 63 57 NE9 30.22S ELIZABETH CITY SUNNY 82 61 48 NE14 30.22S KITTY HAWK PTSUNNY 81 67 60 NE6G17 30.21R MANTEO SUNNY 78 68 69 NE15G22 30.21S $$ NCZ045>047-081-094-103-104-291600- CENTRAL COAST CITY SKY/WX TMP DP RH WIND PRES REMARKS FRISCO PTSUNNY 79 73 82 NE12G20 30.17R SWANQUARTER NOT AVBL $$ NCZ095-097-098-100-101-291600- SOUTHERN COAST CITY SKY/WX TMP DP RH WIND PRES REMARKS BEAUFORT MOSUNNY 81 73 76 N16 30.17R CEDAR ISLAND NOT AVBL JACKSONVILLE PTSUNNY 82 64 54 N13 30.18S PINEY ISLAND PTSUNNY N/A N/A N/A N14G22 30.18R WILMINGTON MOSUNNY 81 68 64 NE10 30.19R $$ NCZ011>013-027>030-043-044-078>080-089-090>093-098-291600- COASTAL PLAIN CITY SKY/WX TMP DP RH WIND PRES REMARKS AHOSKIE SUNNY 78 60 54 NE5 30.24S CLINTON PTSUNNY 78 65 64 NE6 30.22S ELIZABETHTOWN PTSUNNY 76 64 66 CALM 30.22R GOLDSBORO MOSUNNY 80 62 54 NE9 30.21S GREENVILLE SUNNY 81 61 50 NE8 30.23S HAVELOCK MOSUNNY 82 69 64 NE12 30.19R KENANSVILLE N/A 76 63 64 N6 30.23S KINSTON MOSUNNY 79 63 57 N8 30.22S NEW BERN SUNNY 80 65 59 NE13 30.21R RICHLANDS PTSUNNY 79 63 57 N8 30.20R ROCKY MOUNT SUNNY 83 57 41 NE8 30.23F WASHINGTON SUNNY 79 64 59 NE7 30.21S WHITEVILLE CLOUDY 77 65 66 N6 30.21R $$ AMZ130-135-150-152-154-156-158-170-250-252-270-ANZ085-086-088-633-658-670-291600- MARINE OBSERVATIONS STATION/POSITION TIME TEMP WIND PRES WAVE SWELL AIR SEA DIR/SP/G HT/PER HT/PER (UTC) (F) (DEG/KT/KT) (MB) (FT/S) (FT/S) CHESAPEAKE LIGHT 1500 76 50/ 10/ 12 1024.6 64 E VA BEACH 1450 76 77 40/ 12/ 16 1022.9 4/11 3/11 DUCK NOT AVBL 2 E DUCK 1411 78 N/A 4/11 2/11 OREGON INLET NOT AVBL 13E OREGON INLT 1400 78 N/A 4/10 2/11 HATTERAS CG NOT AVBL DIAMOND BUOY 1450 79 83 30/ 16/ 17 1021.0 5/11 3/11 CAPE LOOKOUT 1500 80 30/ 18/ 22 1021.1 BEAUFORT LAB NOT AVBL 30 SE NEW RVR IN 1408 79 81 40/ 17/ 23 1021.0 30 SE NEW RVR IN 1425 81 N/A 5/12 2/12 27 SE WRIGHTSVLE 1400 75 81 40/ 16/ 17 N/A 5 SE WRIGHTSVLE 1408 76 82 40/ 14/ 17 1021.6 225 S CAPE HAT 1450 83 83 210/ 12/ 14 1021.4 5/11 3/11 41 SE CHARLESTON 1450 81 85 60/ 8/ 10 1020.8 4/ 7 3/ 7 $$

USA.gov is the U.S. government's official web portal to all federal, state and local government web resources and services.